Powrót do katalogu

COSMOS 2384

AktywnyNawigacjaPO
NORAD 27055·PAYLOAD·🇷🇺 Russia

Wystrzelony Dec 28, 2001 z Plesetsk Cosmodrome

Loading…

Następne Przeloty (najbliższe 24 godziny)

TLE

ŚwieżeSource: Space-Track

Epoka: Sep 14, 2026, 22:01 UTC

1 27055U 01058A   26257.91775174  .00000011  00000-0 -97677-7 0  9992
2 27055  82.5497 176.3512 0011298  54.9528 305.2620 12.59892996136351

Śledź COSMOS 2384 w czasie rzeczywistym z AllMySat

Download on the App Store